SCP
0 0 0 0 0 0 0 0 0 1 0 0 1 1 0 0 0 0 0 0 0 0 0 0 0 0 0 1 1 1 1 0 0 0 0 0 0 0 0 0 0 0 0
0 0 0 0 0 0 0 0 0 1 1 1 1 1 0 0 0 0 0 0 0 0 0 0 0 0 0 1 1 1 1 1 0 0 0 0 0 0 0 0 0 0 0
0 0 0 0 0 0 0 0 0 1 1 1 1 0 0 0 0 0 0 0 0 0 0 0 0 0 1 1 1 1 1 1 1 1 1 0 0 0 0 0 0 0 1
0 0 0 0 0 0 0 0 0 0 1 1 0 0 0 0 0 0 0 0 0 0 0 0 0 0 1 1 1 1 1 1 1 1 1 1 1 0 0 0 0 1 1
0 0 0 0 0 0 0 0 0 0 1 1 0 0 0 0 0 0 1 1 1 1 1 0 0 1 1 1 1 1 1 1 1 1 1 1 1 1 1 0 0 1 1
0 0 0 0 0 0 0 0 0 0 1 1 1 0 0 0 0 0 0 1 1 1 1 1 1 1 1 1 1 1 1 1 1 1 1 1 1 1 1 0 0 1 1
0 0 0 0 0 0 0 0 0 1 1 1 1 1 0 0 0 0 0 0 0 0 0 0 1 1 1 1 1 1 0 0 1 1 1 1 1 1 0 0 0 1 1
0 0 0 0 0 0 0 0 0 0 1 1 1 1 0 0 0 0 0 0 0 0 0 0 0 1 1 1 1 0 0 0 0 1 1 1 1 1 0 0 1 1 1
0 0 0 0 0 0 0 0 0 0 0 0 0 0 0 0 0 0 0 0 0 0 0 0 0 0 1 1 0 0 0 0 0 1 1 1 1 0 0 0 1 1 1
0 0 0 0 0 0 0 0 0 0 0 0 0 0 0 0 0 0 0 0 0 0 0 0 0 0 0 0 0 0 1 1 1 1 1 1 1 0 0 0 1 1 1
0 0 0 0 0 0 0 0 0 0 0 0 0 0 0 0 0 0 0 0 0 0 0 0 0 0 0 0 0 0 1 1 1 1 1 1 1 1 0 0 1 1 1
0 0 0 0 0 0 0 0 0 0 0 0 0 0 0 0 0 0 0 0 0 0 0 0 0 0 0 0 0 0 0 1 1 1 1 1 1 1 1 0 1 1 1
0 0 0 0 0 0 0 0 0 0 0 0 0 0 0 0 0 0 0 0 0 0 0 0 0 0 0 0 0 0 0 0 1 1 1 1 1 1 1 1 0 1 1
0 0 0 0 0 0 0 0 0 0 0 0 0 0 0 0 0 0 0 0 0 0 0 0 0 0 0 0 0 0 0 0 1 1 1 1 1 1 1 1 1 1 1
0 0 0 0 0 0 0 0 0 0 0 0 0 0 0 0 0 0 0 0 0 0 0 0 0 0 0 0 0 0 0 0 0 1 1 1 1 1 1 1 1 1 1
0 0 0 0 0 0 0 0 0 0 0 0 0 0 0 0 0 0 0 0 0 0 0 0 0 0 0 0 0 0 0 0 0 0 1 1 1 1 1 1 1 1 1
0 0 0 0 0 0 0 0 0 0 0 0 0 0 0 0 0 0 0 0 0 0 0 0 0 0 0 0 0 0 0 0 0 0 0 0 0 1 1 1 1 1 1
0 0 0 0 0 0 0 0 0 0 0 0 0 0 0 0 0 0 0 0 0 0 0 0 0 0 0 0 0 1 1 1 1 0 0 0 0 0 1 1 1 1 1
0 0 0 0 0 0 0 0 0 0 0 0 0 0 0 0 0 0 0 0 0 1 1 0 0 0 0 0 1 1 1 1 1 1 1 0 0 0 0 1 1 1 1
0 0 0 0 0 0 0 0 0 0 0 0 0 0 0 0 0 0 0 0 1 1 1 0 0 0 0 0 1 1 1 1 1 1 1 0 0 0 0 1 1 1 1
0 0 0 0 0 0 0 0 0 0 0 0 0 0 0 0 0 0 0 1 1 1 1 1 0 0 0 0 0 0 0 0 1 1 1 0 0 1 1 1 1 1 1
0 0 0 0 0 0 0 0 0 0 0 0 0 0 0 0 0 0 1 1 1 1 1 1 0 0 0 0 0 0 0 0 1 1 1 0 1 1 1 1 1 1 1
0 0 0 0 0 0 0 0 0 0 0 0 0 0 0 0 0 1 1 1 1 1 1 0 0 0 0 0 0 0 0 1 1 1 1 1 1 1 1 1 1 1 1
0 0 0 0 0 0 0 0 0 0 0 0 0 0 0 1 1 1 1 1 1 1 1 0 0 0 0 0 0 0 0 1 1 1 1 1 1 1 1 1 1 1 1
0 0 0 0 0 0 0 0 0 0 0 0 0 0 0 1 1 1 1 1 1 1 0 0 0 0 0 0 0 0 0 1 2 1 1 1 1 1 1 1 1 1 1
0 0 0 0 0 0 0 0 0 0 0 0 0 0 0 1 1 1 1 1 1 1 1 0 0 0 0 0 0 0 0 1 2 1 1 1 1 2 2 1 1 1 1
Wind_Speed
5 7 8 8 9 10 10 11 11 11 10 10 10 10 9 9 9 8 8 8 8 7 7 7 6 6 5 5 5 5 4 5 5 5 5 5 6 5 5 5 2 4 6
7 8 9 9 9 10 10 11 11 10 10 10 10 9 9 9 8 8 8 7 7 7 7 6 6 5 5 5 4 4 4 5 5 4 3 4 5 5 5 5 5 5 5
7 8 9 9 9 10 10 10 10 10 10 10 9 9 8 8 8 7 7 7 7 6 6 6 6 5 5 4 4 4 5 5 4 3 1 2 5 6 5 5 5 5 5
8 8 9 10 10 10 10 10 10 9 9 9 8 8 8 8 7 7 7 6 6 6 6 5 5 5 5 5 5 5 5 5 4 1 1 3 4 7 5 5 5 6 5
8 8 10 9 9 9 9 9 9 9 8 8 8 8 7 7 7 7 6 6 6 6 6 5 5 5 5 5 5 5 5 4 2 1 3 3 4 7 6 5 5 5 6
9 8 10 8 9 8 8 8 8 8 8 8 8 7 7 6 6 6 6 6 5 5 5 4 4 5 5 5 5 5 4 2 2 3 3 3 4 6 5 5 5 4 5
9 8 9 8 8 8 8 8 8 7 7 7 7 7 7 6 6 6 5 5 4 4 4 4 4 4 4 4 4 4 4 2 1 3 3 3 5 6 5 5 5 4 4
8 8 9 9 7 7 7 8 7 7 7 7 7 7 7 6 6 6 5 4 4 4 4 4 4 4 5 5 5 5 4 3 3 3 4 4 7 5 5 5 5 5 5
7 7 6 7 8 8 7 8 8 8 8 7 7 7 7 6 6 6 5 5 5 5 4 5 5 5 5 5 5 5 4 2 1 3 4 5 6 5 5 5 5 5 5
6 6 6 6 5 5 7 8 7 8 8 7 7 7 5 4 4 4 5 7 6 6 6 6 6 6 6 6 5 4 2 2 3 4 3 6 6 5 6 5 5 5 5
6 5 5 5 5 4 5 6 5 6 5 3 5 5 1 3 4 4 10 8 7 7 7 7 6 6 5 6 5 2 1 2 5 4 5 8 6 6 6 6 5 5 5
6 6 5 5 5 5 4 4 3 4 4 4 5 5 4 4 4 4 7 7 7 6 6 6 4 4 2 4 5 2 2 4 4 4 7 8 7 7 7 7 7 7 7
6 6 5 5 5 5 4 3 3 3 3 4 5 5 4 3 2 3 2 4 3 2 4 5 3 4 4 4 4 4 5 4 3 4 8 10 9 8 8 8 8 8 8
6 6 5 5 5 5 5 4 3 3 3 4 4 5 4 3 3 4 2 3 3 3 3 3 3 5 5 6 6 7 6 4 4 4 8 11 11 10 9 9 9 9 9
6 6 6 4 5 5 5 3 4 4 4 5 4 4 5 3 3 3 3 3 3 3 3 3 4 6 6 6 6 7 7 7 6 6 6 12 13 12 11 11 10 10 10
7 6 6 5 5 5 4 4 4 4 3 4 4 5 6 4 4 3 4 4 4 3 3 4 5 5 5 5 7 7 7 7 7 7 6 9 13 13 12 12 11 11 11
7 7 7 5 5 5 5 5 4 3 4 4 4 5 5 5 4 3 4 4 3 4 4 4 6 4 5 6 7 7 6 7 7 7 7 6 7 12 14 14 13 13 13
7 7 7 4 4 5 4 4 4 4 4 4 4 4 6 5 5 4 3 4 3 3 4 4 4 4 5 5 6 6 6 6 7 7 7 6 6 6 11 15 15 14 14
7 7 6 5 5 5 4 4 4 4 4 4 4 4 5 6 5 4 4 3 4 3 3 4 4 5 6 6 6 6 6 6 6 7 8 8 8 7 7 9 13 15 15
6 6 6 6 5 5 3 3 3 4 4 4 4 5 6 5 5 5 3 4 4 4 3 4 5 5 5 5 6 7 7 6 6 7 7 7 7 8 8 8 6 8 13
7 7 6 6 6 4 3 2 2 3 3 4 4 6 5 5 5 5 3 4 3 4 4 5 5 7 5 4 5 6 6 8 7 6 6 6 7 8 8 8 6 6 6
8 7 7 6 5 4 2 2 2 3 3 4 4 5 5 5 5 4 4 3 4 3 4 4 4 3 3 1 1 2 3 4 5 6 6 6 7 6 7 8 8 8 7
8 8 6 6 6 5 4 3 3 3 3 3 4 4 5 6 6 5 5 4 3 3 3 3 3 3 3 2 3 2 1 3 3 4 7 6 6 6 6 7 9 9 8
9 7 7 7 6 5 5 4 3 2 3 4 3 4 4 5 5 5 5 5 4 4 3 2 3 1 1 2 2 2 3 2 1 3 3 5 6 7 7 6 7 8 9
9 8 7 7 6 6 5 4 3 2 3 3 3 4 4 5 5 5 5 4 5 4 4 4 3 2 1 1 1 2 3 2 1 2 3 3 4 5 6 7 6 7 8
8 8 8 8 7 6 5 5 4 4 4 4 3 3 3 3 3 5 4 4 4 4 4 4 4 4 3 3 2 2 1 1 2 2 3 3 3 4 5 5 6 6 6
Wind_Direction
90 87 88 90 91 88 84 83 82 82 82 81 81 80 78 77 77 76 76 73 70 69 70 70 67 63 66 67 62 63 70 73 73 71 75 75 69 62 60 56 50 95 74
99 95 92 89 89 87 85 84 82 81 79 78 76 74 73 73 74 73 72 70 70 67 66 67 68 64 63 63 60 61 68 73 72 73 80 102 86 68 61 52 31 49 64
105 103 103 92 90 87 86 86 83 80 77 75 72 71 69 69 68 68 68 65 64 62 62 61 65 62 60 66 64 62 65 67 69 73 175 117 100 82 64 57 56 59 64
106 102 93 93 91 88 87 85 81 77 72 69 67 66 65 65 64 64 65 61 60 58 58 58 60 57 58 62 65 62 59 64 61 291 180 75 78 82 67 60 60 61 64
107 102 98 94 89 87 85 82 78 73 68 65 64 63 63 61 59 58 58 57 55 56 60 62 58 53 55 59 65 63 60 69 65 273 69 71 72 75 68 61 60 61 59
110 103 98 92 88 85 83 79 75 69 63 61 61 60 58 56 55 52 51 55 56 54 55 60 58 56 57 64 70 67 63 63 223 80 78 84 84 79 72 66 61 60 57
110 104 101 93 88 83 78 74 69 64 59 56 54 54 54 51 50 47 47 54 53 52 53 57 59 56 63 74 77 70 60 360 52 86 86 82 76 70 69 67 62 54 56
107 105 106 106 91 81 76 71 65 59 55 54 51 51 49 45 45 44 43 44 47 52 57 65 68 66 71 78 79 72 53 323 108 89 87 83 70 69 72 69 60 52 48
109 108 109 112 112 105 84 66 60 56 55 54 54 53 51 48 46 43 40 41 51 56 59 70 75 75 77 82 80 73 63 356 45 83 89 80 75 72 74 66 53 47 44
115 112 108 104 96 95 98 81 63 58 55 57 59 52 52 83 81 54 59 55 58 64 68 74 76 76 79 79 77 73 62 230 72 81 71 77 71 71 72 65 54 45 37
119 113 109 100 88 79 75 83 86 85 66 77 87 72 10 49 60 76 55 53 59 68 71 73 78 83 99 100 83 84 207 83 81 66 61 60 61 68 66 61 54 41 32
125 117 110 102 95 88 78 85 70 72 64 46 42 45 40 49 47 46 90 70 66 77 94 83 101 140 177 110 115 164 93 79 77 73 64 51 59 65 64 60 53 43 40
119 115 110 104 94 84 86 73 63 63 61 56 45 47 39 50 65 58 74 105 97 109 94 111 137 86 85 79 84 85 71 72 68 66 61 50 55 58 61 57 53 49 48
120 114 111 108 101 88 80 77 71 65 55 52 42 39 40 45 42 53 55 56 65 69 66 75 77 83 86 85 83 82 81 71 64 67 62 50 54 56 57 57 57 53 49
129 126 114 108 94 89 79 70 72 61 46 63 45 36 41 41 45 54 65 57 60 68 86 81 81 83 80 75 74 75 74 72 69 67 74 59 53 54 54 53 53 51 51
142 131 126 119 101 92 93 81 62 61 67 52 46 44 42 42 45 48 66 61 58 61 70 85 85 85 84 80 75 74 67 69 68 68 70 75 61 53 51 51 51 49 49
144 137 129 120 111 92 79 69 66 58 61 56 47 42 48 44 44 51 56 65 64 73 86 82 85 85 90 89 82 75 69 62 64 64 62 57 68 64 53 50 49 47 46
149 140 133 135 122 101 87 77 72 66 61 56 51 41 43 48 49 50 53 63 70 79 88 92 91 95 91 85 80 74 75 71 66 63 63 62 53 55 60 51 48 46 44
154 147 144 138 129 116 103 96 79 77 64 55 50 44 41 46 46 57 49 51 76 84 88 93 88 90 93 90 86 76 69 64 59 59 59 57 56 53 58 64 55 47 41
160 156 145 141 145 130 126 110 99 81 71 62 57 52 40 40 43 54 63 62 74 92 92 93 99 97 94 95 88 77 68 67 60 53 55 56 53 52 50 49 54 57 47
169 168 156 160 155 150 138 130 110 91 80 73 60 52 51 46 47 55 53 62 61 83 92 108 112 115 109 109 108 98 84 67 60 55 52 55 57 52 51 48 43 39 50
174 175 169 165 162 157 134 114 102 91 81 73 70 63 50 52 51 52 57 71 77 88 94 102 116 120 117 119 122 131 123 103 68 55 56 53 53 53 49 47 43 42 37
180 179 176 168 162 160 149 133 128 121 126 109 87 67 51 53 56 52 54 60 70 94 97 97 115 126 121 91 33 355 48 87 103 69 53 54 51 47 47 43 42 39 40
184 182 182 175 167 161 162 162 151 137 106 88 80 82 80 64 60 55 59 59 65 69 89 99 85 98 130 114 85 33 32 70 128 113 81 61 53 47 41 39 39 38 39
180 180 181 173 172 168 169 155 167 135 110 112 106 95 84 75 64 62 57 59 64 69 71 70 68 62 77 58 71 92 92 99 71 103 101 88 70 52 44 38 37 36 38
179 177 177 177 171 171 173 169 174 141 138 133 123 105 100 93 79 72 64 67 68 68 69 68 74 76 67 66 62 74 91 96 93 95 110 104 80 63 55 43 37 36 37